レモン彗星

C/2019 S4 ( Lemmon )

English version
Home page
Updated on June 29, 2020

---------------------------------------------------------------------

・ プロフィール

発見日 2019年9月19日
発見光度 21.4等
発見者 D. Rankin (Mount Lemmon Survey)

・ 写真集

・ 軌道要素

Epoch 2020 Apr. 21.0 TT = JDT 2458960.5
T 2020 Apr. 7.93619 TT                                  Rudenko
q   3.4417465            (2000.0)            P               Q
z  +0.0041442      Peri.   71.35420     +0.17418406     -0.41758977
 +/-0.0000016      Node    63.16894     -0.12877428     -0.90751075
e   0.9857368      Incl.   92.02499     +0.97625668     -0.04519975
From 86 observations 2019 Sept. 17-2020 June 18, mean residual 0".4.

・ 光度変化

        m1 = 11.5 + 5 logΔ + 10.0 log r

---------------------------------------------------------------------

軌道要素はM.P.E.C. 2020-M114に掲載されたものです。
光度グラフはComet for Windowsで作成したものです。

---------------------------------------------------------------------

Copyright(C) Seiichi Yoshida (comet@aerith.net). All rights reserved.